Flag for Brazil Weather past 2 weeks in Porto Velho, Rondônia, Brazil

Now
81 °F

Sunny.


Feels Like: 87 °F
Forecast: 72 / 87 °F
Wind: No wind

Location: Porto Velho Aeroporto

Current Time: Jul 24, 2014 at 9:50:35 AM

Latest Report: Jul 24, 2014 at 9:00 AM


Visibility: 10 mi

Pressure: 29.98 "Hg

Humidity: 89%

Dew point: 77 °F

Location of Porto VelhoLocation

Historic Weather in Porto Velho — Graph

°F

Porto Velho temperature yesterday

Maximum temperature yesterday: 90 °F (at 2:00 PM)
Minimum temperature yesterday: 73 °F (at 2:00 AM)
Average temperature yesterday: 79 °F

Past Weeks' High & Low Weather Summary

 TemperatureHumidityPressure
High95 °F (Jul 14, 3:00 PM)94% (Jul 10, 7:00 AM)30.07 "Hg (Jul 10, 7:00 AM)
Low66 °F (Jul 10, 1:00 AM)32% (Jul 14, 4:00 PM)29.80 "Hg (Jul 23, 5:00 PM)
Average79 °F76%29.95 "Hg
* Reported Jul 9 9:00 AM — Jul 24 8:00 AM, Porto Velho, Weather by CustomWeather, © 2014

Note: Actual official high and low records may vary slightly from our data, if they occured in-between our weather recording intervals... More about our weather records

Advertising

Porto Velho weather history for previous 24 hours

 ConditionsComfort  
Time TempWeatherWind HumidityBarometerVisibility
8:00 AM
Jul 24
77 °FSunny.No wind89%29.95 "Hg10 mi
7:00 AM73 °FSunny.No wind89%29.92 "Hg10 mi
6:00 AM73 °FClear.No wind89%29.89 "Hg5 mi
5:00 AM73 °FClear.No wind89%29.86 "Hg10 mi
4:00 AM73 °FClear.No wind89%29.86 "Hg10 mi
3:00 AM73 °FClear.No wind89%29.86 "Hg10 mi
2:00 AM73 °FClear.6 mph89%29.89 "Hg10 mi
1:00 AM73 °FClear.No wind89%29.89 "Hg10 mi
12:00 AM75 °FClear.No wind83%29.89 "Hg10 mi
11:00 PM
Jul 23
75 °FClear.No wind89%29.89 "Hg10 mi
10:00 PM75 °FClear.No wind83%29.89 "Hg10 mi
9:00 PM75 °FClear.No wind83%29.86 "Hg10 mi
8:00 PM75 °FClear.No wind83%29.86 "Hg10 mi
7:00 PM77 °FClear.No wind79%29.83 "Hg10 mi
6:00 PM79 °FSunny.No wind74%29.83 "Hg10 mi
5:00 PM79 °FScattered clouds.No wind74%29.80 "HgN/A
4:00 PM77 °FScattered showers. Partly sunny.2 mph69%29.83 "Hg5 mi
3:00 PM88 °FScattered clouds.7 mph62%29.83 "HgN/A
2:00 PM90 °FScattered clouds.7 mph67%29.89 "HgN/A
1:00 PM88 °FScattered clouds.7 mph75%29.92 "HgN/A
12:00 PM86 °FScattered clouds.No wind79%29.95 "HgN/A
11:00 AM84 °FSunny.No wind79%29.98 "Hg10 mi
10:00 AM81 °FSunny.No wind84%30.01 "Hg10 mi
9:00 AM79 °FSunny.7 mph84%30.01 "Hg10 mi
Weather by CustomWeather, © 2014

See weather overviewHow to use our weather pages